Retour au catalogue

SL-16 DEB

ActifLEO
NORAD 18527·DEBRIS·🇷🇺 Russia

Lancé Mar 18, 1987 depuis Baikonur Cosmodrome

Loading…

Prochains Passages (prochaines 24 heures)

TLE

FraisSource: Space-Track

Époque: Sep 14, 2026, 14:07 UTC

1 18527U 87027E   26257.58858090  .00000017  00000-0  53406-4 0  9992
2 18527  70.9954 107.5518 0193189 142.2437 219.2404 13.75826415981495

Suivez SL-16 DEB en temps réel avec AllMySat

Download on the App Store